Torna al catalogo

FENGYUN 1C DEB

LostPO
NORAD 37713·DEBRIS·🇨🇳 China

Lanciato May 10, 1999 da Taiyuan Satellite Launch Center

Loading…

Prossimi Passaggi (prossime 24 ore)

TLE

ObsoletoSource: Space-Track

Epoca: Aug 24, 2021, 06:29 UTC

1 37713U 99025EME 21236.27019910  .00001047  00000-0  84552-3 0  9998
2 37713  98.0602 273.0620 0152026 228.8533 129.9427 13.86924867651184

Traccia FENGYUN 1C DEB in tempo reale con AllMySat

Download on the App Store